Time,TemperatureF,DewpointF,PressureIn,WindDirection,WindDirectionDegrees,WindSpeedMPH,WindSpeedGustMPH,Humidity,HourlyPrecipIn,Conditions,Clouds,dailyrainin,SoftwareType,DateUTC
2013-08-31 00:10:00,78.0,74.0,29.78,NNE,22,3.0,5.0,89,0.00,,,0.00,TxWx,2013-08-31 04:10:00,
2013-08-31 00:15:00,78.0,74.0,29.78,WNW,292,3.0,3.0,89,0.00,,,0.00,TxWx,2013-08-31 04:15:00,
2013-08-31 00:20:00,78.0,74.0,29.78,North,0,3.0,3.0,89,0.00,,,0.00,TxWx,2013-08-31 04:20:00,
2013-08-31 00:25:00,78.0,74.0,29.78,WNW,292,1.0,3.0,89,0.00,,,0.00,TxWx,2013-08-31 04:25:00,
2013-08-31 00:31:00,78.0,75.0,29.78,WNW,292,2.0,2.0,90,0.00,,,0.00,TxWx,2013-08-31 04:31:00,
2013-08-31 00:36:00,78.0,75.0,29.77,NW,315,5.0,7.0,90,0.00,,,0.00,TxWx,2013-08-31 04:36:00,
2013-08-31 00:41:00,78.0,75.0,29.77,NW,315,3.0,4.0,90,0.00,,,0.00,TxWx,2013-08-31 04:41:00,
2013-08-31 00:46:00,78.0,75.0,29.77,NNW,337,3.0,3.0,90,0.00,,,0.00,TxWx,2013-08-31 04:46:00,
2013-08-31 00:51:00,78.0,75.0,29.77,NNW,337,3.0,3.0,90,0.00,,,0.00,TxWx,2013-08-31 04:51:00,
2013-08-31 00:56:00,78.0,75.0,29.77,North,0,3.0,3.0,90,0.00,,,0.00,TxWx,2013-08-31 04:56:00,
2013-08-31 01:01:00,78.0,75.0,29.77,NNW,337,3.0,3.0,90,0.00,,,0.00,TxWx,2013-08-31 05:01:00,
2013-08-31 01:06:00,78.0,75.0,29.77,NNW,337,5.0,6.0,90,0.00,,,0.00,TxWx,2013-08-31 05:06:00,
2013-08-31 01:11:00,78.0,75.0,29.77,North,0,3.0,4.0,90,0.00,,,0.00,TxWx,2013-08-31 05:11:00,
2013-08-31 01:17:00,78.0,75.0,29.77,NW,315,3.0,3.0,90,0.00,,,0.00,TxWx,2013-08-31 05:17:00,
2013-08-31 01:22:00,78.0,75.0,29.77,NW,315,2.0,3.0,90,0.00,,,0.00,TxWx,2013-08-31 05:22:00,
2013-08-31 01:27:00,78.0,75.0,29.77,NNW,337,3.0,3.0,90,0.00,,,0.00,TxWx,2013-08-31 05:27:00,
2013-08-31 01:32:00,78.0,75.0,29.76,West,270,3.0,3.0,90,0.00,,,0.00,TxWx,2013-08-31 05:32:00,
2013-08-31 01:37:00,78.0,75.0,29.76,NE,45,1.0,3.0,90,0.00,,,0.00,TxWx,2013-08-31 05:37:00,
2013-08-31 01:42:00,78.0,75.0,29.76,NNW,337,4.0,5.0,90,0.00,,,0.00,TxWx,2013-08-31 05:42:00,
2013-08-31 01:47:00,78.0,75.0,29.76,NW,315,2.0,3.0,90,0.00,,,0.00,TxWx,2013-08-31 05:47:00,
2013-08-31 01:52:00,78.0,75.0,29.76,NW,315,2.0,2.0,90,0.00,,,0.00,TxWx,2013-08-31 05:52:00,
2013-08-31 01:58:00,78.0,75.0,29.76,NNW,337,2.0,3.0,90,0.00,,,0.00,TxWx,2013-08-31 05:58:00,
2013-08-31 02:03:00,78.0,75.0,29.76,NNW,337,4.0,4.0,90,0.00,,,0.00,TxWx,2013-08-31 06:03:00,
2013-08-31 02:08:00,78.0,75.0,29.76,NW,315,3.0,4.0,90,0.00,,,0.00,TxWx,2013-08-31 06:08:00,
2013-08-31 02:13:00,78.0,75.0,29.76,WNW,292,3.0,3.0,90,0.00,,,0.00,TxWx,2013-08-31 06:13:00,
2013-08-31 02:18:00,78.0,75.0,29.76,WNW,292,6.0,8.0,90,0.00,,,0.00,TxWx,2013-08-31 06:18:00,
2013-08-31 02:23:00,78.0,75.0,29.76,WNW,292,2.0,2.0,90,0.00,,,0.00,TxWx,2013-08-31 06:23:00,
2013-08-31 02:26:00,82.0,78.0,29.78,North,0,4.0,5.0,87,0.00,,,0.00,TxWx,2013-08-31 06:26:00,
2013-08-31 02:27:00,82.0,78.0,29.78,NW,315,2.0,3.0,87,0.00,,,0.00,TxWx,2013-08-31 06:27:00,
2013-08-31 02:28:00,78.0,75.0,29.76,North,0,2.0,2.0,90,0.00,,,0.00,TxWx,2013-08-31 06:28:00,
2013-08-31 02:30:00,82.0,78.0,29.78,NW,315,1.0,3.0,87,0.00,,,0.00,TxWx,2013-08-31 06:30:00,
2013-08-31 02:31:00,82.0,77.0,29.77,WSW,247,4.0,4.0,86,0.00,,,0.00,TxWx,2013-08-31 06:31:00,
2013-08-31 02:32:00,82.0,77.0,29.77,North,0,4.0,5.0,86,0.00,,,0.00,TxWx,2013-08-31 06:32:00,
2013-08-31 02:33:00,78.0,75.0,29.76,WNW,292,3.0,4.0,90,0.00,,,0.00,TxWx,2013-08-31 06:33:00,
2013-08-31 02:34:00,82.0,77.0,29.77,NNE,22,2.0,3.0,86,0.00,,,0.00,TxWx,2013-08-31 06:34:00,
2013-08-31 02:35:00,82.0,77.0,29.77,East,90,1.0,2.0,86,0.00,,,0.00,TxWx,2013-08-31 06:35:00,
2013-08-31 02:36:00,82.0,77.0,29.77,WNW,292,3.0,4.0,86,0.00,,,0.00,TxWx,2013-08-31 06:36:00,
2013-08-31 02:38:00,82.0,77.0,29.77,West,270,5.0,5.0,86,0.00,,,0.00,TxWx,2013-08-31 06:38:00,
2013-08-31 02:39:00,78.0,75.0,29.76,NW,315,3.0,3.0,90,0.00,,,0.00,TxWx,2013-08-31 06:39:00,
2013-08-31 02:44:00,78.0,75.0,29.76,NW,315,2.0,2.0,90,0.00,,,0.00,TxWx,2013-08-31 06:44:00,
2013-08-31 02:49:00,78.0,75.0,29.76,NW,315,2.0,3.0,90,0.00,,,0.00,TxWx,2013-08-31 06:49:00,
2013-08-31 02:54:00,78.0,75.0,29.76,NNW,337,3.0,6.0,90,0.00,,,0.00,TxWx,2013-08-31 06:54:00,
2013-08-31 02:59:00,78.0,75.0,29.76,NNW,337,3.0,3.0,90,0.00,,,0.00,TxWx,2013-08-31 06:59:00,
2013-08-31 03:04:00,78.0,75.0,29.76,North,0,2.0,3.0,90,0.00,,,0.00,TxWx,2013-08-31 07:04:00,
2013-08-31 03:09:00,78.0,75.0,29.76,West,270,3.0,3.0,91,0.00,,,0.00,TxWx,2013-08-31 07:09:00,
2013-08-31 03:15:00,78.0,75.0,29.76,North,0,1.0,2.0,91,0.00,,,0.00,TxWx,2013-08-31 07:15:00,
2013-08-31 03:20:00,78.0,75.0,29.76,WNW,292,5.0,6.0,91,0.00,,,0.00,TxWx,2013-08-31 07:20:00,
2013-08-31 03:25:00,78.0,75.0,29.75,NW,315,3.0,3.0,91,0.00,,,0.00,TxWx,2013-08-31 07:25:00,
2013-08-31 03:30:00,78.0,75.0,29.75,North,0,3.0,3.0,91,0.00,,,0.00,TxWx,2013-08-31 07:30:00,
2013-08-31 03:35:00,78.0,75.0,29.75,NW,315,3.0,4.0,91,0.00,,,0.00,TxWx,2013-08-31 07:35:00,
2013-08-31 03:40:00,78.0,75.0,29.75,NNW,337,5.0,5.0,91,0.00,,,0.00,TxWx,2013-08-31 07:40:00,
2013-08-31 03:45:00,78.0,75.0,29.75,WNW,292,2.0,3.0,92,0.00,,,0.00,TxWx,2013-08-31 07:45:00,
2013-08-31 03:50:00,78.0,75.0,29.75,NW,315,3.0,3.0,92,0.00,,,0.00,TxWx,2013-08-31 07:50:00,
2013-08-31 03:56:00,78.0,75.0,29.75,NNW,337,4.0,6.0,92,0.00,,,0.00,TxWx,2013-08-31 07:56:00,
2013-08-31 04:01:00,78.0,75.0,29.75,NNW,337,3.0,3.0,92,0.00,,,0.00,TxWx,2013-08-31 08:01:00,
2013-08-31 04:06:00,78.0,75.0,29.75,North,0,5.0,5.0,92,0.00,,,0.00,TxWx,2013-08-31 08:06:00,
2013-08-31 04:11:00,78.0,75.0,29.76,NNW,337,3.0,3.0,92,0.00,,,0.00,TxWx,2013-08-31 08:11:00,
2013-08-31 04:16:00,78.0,75.0,29.75,NW,315,4.0,5.0,92,0.00,,,0.00,TxWx,2013-08-31 08:16:00,
2013-08-31 04:21:00,78.0,75.0,29.76,NNW,337,3.0,3.0,92,0.00,,,0.00,TxWx,2013-08-31 08:21:00,
2013-08-31 04:26:00,78.0,75.0,29.75,NW,315,3.0,3.0,92,0.00,,,0.00,TxWx,2013-08-31 08:26:00,
2013-08-31 04:32:00,78.0,75.0,29.75,NNW,337,1.0,2.0,92,0.00,,,0.00,TxWx,2013-08-31 08:32:00,
2013-08-31 04:37:00,78.0,75.0,29.76,NNE,22,2.0,3.0,92,0.00,,,0.00,TxWx,2013-08-31 08:37:00,
2013-08-31 04:42:00,78.0,75.0,29.76,NNW,337,3.0,3.0,92,0.00,,,0.00,TxWx,2013-08-31 08:42:00,
2013-08-31 04:47:00,78.0,75.0,29.76,NW,315,1.0,2.0,92,0.00,,,0.00,TxWx,2013-08-31 08:47:00,
2013-08-31 04:52:00,78.0,75.0,29.75,NW,315,2.0,3.0,92,0.00,,,0.00,TxWx,2013-08-31 08:52:00,
2013-08-31 04:57:00,77.0,74.0,29.75,WNW,292,1.0,2.0,92,0.00,,,0.00,TxWx,2013-08-31 08:57:00,
2013-08-31 05:02:00,77.0,74.0,29.76,WNW,292,2.0,3.0,92,0.00,,,0.00,TxWx,2013-08-31 09:02:00,
2013-08-31 05:08:00,77.0,75.0,29.75,WSW,247,1.0,2.0,93,0.00,,,0.00,TxWx,2013-08-31 09:08:00,
2013-08-31 05:13:00,77.0,75.0,29.76,SW,225,1.0,1.0,93,0.00,,,0.00,TxWx,2013-08-31 09:13:00,
2013-08-31 05:18:00,77.0,75.0,29.76,WNW,292,1.0,1.0,93,0.00,,,0.00,TxWx,2013-08-31 09:18:00,
2013-08-31 05:23:00,77.0,75.0,29.76,WNW,292,1.0,1.0,93,0.00,,,0.00,TxWx,2013-08-31 09:23:00,
2013-08-31 05:28:00,77.0,75.0,29.77,NE,45,3.0,3.0,93,0.00,,,0.00,TxWx,2013-08-31 09:28:00,
2013-08-31 05:33:00,77.0,75.0,29.76,SW,225,1.0,2.0,93,0.00,,,0.00,TxWx,2013-08-31 09:33:00,
2013-08-31 05:38:00,77.0,75.0,29.76,NNW,337,1.0,1.0,93,0.00,,,0.00,TxWx,2013-08-31 09:38:00,
2013-08-31 05:43:00,77.0,75.0,29.76,NNW,337,1.0,1.0,93,0.00,,,0.00,TxWx,2013-08-31 09:43:00,
2013-08-31 05:49:00,77.0,75.0,29.76,NNW,337,0.0,1.0,93,0.00,,,0.00,TxWx,2013-08-31 09:49:00,
2013-08-31 05:54:00,77.0,75.0,29.76,ESE,112,1.0,1.0,94,0.00,,,0.00,TxWx,2013-08-31 09:54:00,
2013-08-31 05:59:00,77.0,75.0,29.76,West,270,1.0,1.0,94,0.00,,,0.00,TxWx,2013-08-31 09:59:00,
2013-08-31 06:04:00,76.0,74.0,29.76,WNW,292,3.0,3.0,94,0.00,,,0.00,TxWx,2013-08-31 10:04:00,
2013-08-31 06:09:00,76.0,74.0,29.76,WNW,292,1.0,1.0,94,0.00,,,0.00,TxWx,2013-08-31 10:09:00,
2013-08-31 06:14:00,76.0,74.0,29.76,WNW,292,1.0,2.0,94,0.00,,,0.00,TxWx,2013-08-31 10:14:00,
2013-08-31 06:19:00,76.0,74.0,29.76,NW,315,3.0,3.0,94,0.00,,,0.00,TxWx,2013-08-31 10:19:00,
2013-08-31 06:24:00,76.0,74.0,29.76,NNW,337,3.0,3.0,94,0.00,,,0.00,TxWx,2013-08-31 10:24:00,
2013-08-31 06:30:00,76.0,74.0,29.76,NW,315,3.0,4.0,94,0.00,,,0.00,TxWx,2013-08-31 10:30:00,
2013-08-31 06:35:00,76.0,74.0,29.76,NW,315,3.0,3.0,94,0.00,,,0.00,TxWx,2013-08-31 10:35:00,
2013-08-31 06:40:00,76.0,74.0,29.76,NNW,337,1.0,2.0,94,0.00,,,0.00,TxWx,2013-08-31 10:40:00,
2013-08-31 06:45:00,76.0,74.0,29.76,NW,315,5.0,5.0,95,0.00,,,0.00,TxWx,2013-08-31 10:45:00,
2013-08-31 06:50:00,76.0,74.0,29.76,NW,315,1.0,1.0,95,0.00,,,0.00,TxWx,2013-08-31 10:50:00,
2013-08-31 06:55:00,76.0,74.0,29.76,NNW,337,4.0,5.0,95,0.00,,,0.00,TxWx,2013-08-31 10:55:00,
2013-08-31 07:00:00,76.0,74.0,29.76,WNW,292,2.0,3.0,95,0.00,,,0.00,TxWx,2013-08-31 11:00:00,
2013-08-31 07:06:00,76.0,74.0,29.76,NNW,337,2.0,3.0,95,0.00,,,0.00,TxWx,2013-08-31 11:06:00,
2013-08-31 07:11:00,76.0,74.0,29.76,North,0,2.0,2.0,95,0.00,,,0.00,TxWx,2013-08-31 11:11:00,
2013-08-31 07:16:00,76.0,74.0,29.76,NNW,337,2.0,3.0,95,0.00,,,0.00,TxWx,2013-08-31 11:16:00,
2013-08-31 07:21:00,76.0,74.0,29.77,North,0,3.0,3.0,95,0.00,,,0.00,TxWx,2013-08-31 11:21:00,
2013-08-31 07:26:00,76.0,74.0,29.77,NW,315,1.0,1.0,95,0.00,,,0.00,TxWx,2013-08-31 11:26:00,
2013-08-31 07:31:00,76.0,74.0,29.77,WNW,292,1.0,1.0,95,0.00,,,0.00,TxWx,2013-08-31 11:31:00,
2013-08-31 07:36:00,76.0,75.0,29.77,West,270,3.0,3.0,96,0.00,,,0.00,TxWx,2013-08-31 11:36:00,
2013-08-31 07:41:00,76.0,75.0,29.77,WNW,292,2.0,3.0,96,0.00,,,0.00,TxWx,2013-08-31 11:41:00,
2013-08-31 07:47:00,76.0,75.0,29.77,NNW,337,1.0,2.0,96,0.00,,,0.00,TxWx,2013-08-31 11:47:00,
2013-08-31 07:52:00,76.0,75.0,29.77,WNW,292,1.0,1.0,96,0.00,,,0.00,TxWx,2013-08-31 11:52:00,
2013-08-31 07:57:00,77.0,76.0,29.77,NNW,337,2.0,3.0,96,0.00,,,0.00,TxWx,2013-08-31 11:57:00,
2013-08-31 08:02:00,77.0,76.0,29.77,NNW,337,1.0,2.0,96,0.00,,,0.00,TxWx,2013-08-31 12:02:00,
2013-08-31 08:07:00,77.0,76.0,29.77,NNW,337,5.0,6.0,96,0.00,,,0.00,TxWx,2013-08-31 12:07:00,
2013-08-31 08:12:00,77.0,76.0,29.78,North,0,3.0,4.0,96,0.00,,,0.00,TxWx,2013-08-31 12:12:00,
2013-08-31 08:17:00,77.0,76.0,29.77,NW,315,2.0,3.0,96,0.00,,,0.00,TxWx,2013-08-31 12:17:00,
2013-08-31 08:22:00,77.0,76.0,29.77,NW,315,2.0,3.0,96,0.00,,,0.00,TxWx,2013-08-31 12:22:00,
2013-08-31 08:27:00,77.0,76.0,29.77,NW,315,3.0,3.0,96,0.00,,,0.00,TxWx,2013-08-31 12:27:00,
2013-08-31 08:33:00,77.0,76.0,29.77,NNW,337,3.0,4.0,96,0.00,,,0.00,TxWx,2013-08-31 12:33:00,
2013-08-31 08:38:00,78.0,77.0,29.77,North,0,3.0,4.0,97,0.00,,,0.00,TxWx,2013-08-31 12:38:00,
2013-08-31 08:43:00,78.0,77.0,29.77,NNW,337,4.0,4.0,97,0.00,,,0.00,TxWx,2013-08-31 12:43:00,
2013-08-31 08:48:00,78.0,77.0,29.77,WNW,292,3.0,3.0,97,0.00,,,0.00,TxWx,2013-08-31 12:48:00,
2013-08-31 08:53:00,78.0,77.0,29.77,NNW,337,5.0,8.0,96,0.00,,,0.00,TxWx,2013-08-31 12:53:00,
2013-08-31 08:58:00,78.0,77.0,29.77,WNW,292,2.0,3.0,97,0.00,,,0.00,TxWx,2013-08-31 12:58:00,
2013-08-31 09:03:00,79.0,78.0,29.77,NNW,337,5.0,5.0,96,0.00,,,0.00,TxWx,2013-08-31 13:03:00,
2013-08-31 09:09:00,79.0,78.0,29.77,NNW,337,1.0,2.0,96,0.00,,,0.00,TxWx,2013-08-31 13:09:00,
2013-08-31 09:14:00,79.0,78.0,29.78,North,0,3.0,3.0,96,0.00,,,0.00,TxWx,2013-08-31 13:14:00,
2013-08-31 09:19:00,79.0,78.0,29.77,West,270,5.0,6.0,96,0.00,,,0.00,TxWx,2013-08-31 13:19:00,
2013-08-31 09:24:00,79.0,78.0,29.77,NNW,337,3.0,3.0,96,0.00,,,0.00,TxWx,2013-08-31 13:24:00,
2013-08-31 09:29:00,79.0,77.0,29.77,West,270,4.0,4.0,95,0.00,,,0.00,TxWx,2013-08-31 13:29:00,
2013-08-31 09:34:00,79.0,77.0,29.77,WNW,292,4.0,5.0,95,0.00,,,0.00,TxWx,2013-08-31 13:34:00,
2013-08-31 09:39:00,79.0,77.0,29.77,NNW,337,3.0,4.0,94,0.00,,,0.00,TxWx,2013-08-31 13:39:00,
2013-08-31 09:45:00,79.0,77.0,29.77,West,270,6.0,10.0,94,0.00,,,0.00,TxWx,2013-08-31 13:45:00,
2013-08-31 09:50:00,79.0,77.0,29.77,NNW,337,5.0,6.0,94,0.00,,,0.00,TxWx,2013-08-31 13:50:00,
2013-08-31 09:55:00,79.0,77.0,29.78,NNW,337,1.0,1.0,93,0.00,,,0.00,TxWx,2013-08-31 13:55:00,
2013-08-31 10:00:00,79.0,77.0,29.78,East,90,2.0,3.0,93,0.00,,,0.00,TxWx,2013-08-31 14:00:00,
2013-08-31 10:05:00,79.0,77.0,29.78,WNW,292,3.0,3.0,93,0.00,,,0.00,TxWx,2013-08-31 14:05:00,
2013-08-31 10:10:00,80.0,78.0,29.78,NNE,22,3.0,4.0,93,0.00,,,0.00,TxWx,2013-08-31 14:10:00,
2013-08-31 10:15:00,80.0,78.0,29.78,NNE,22,3.0,4.0,93,0.00,,,0.00,TxWx,2013-08-31 14:15:00,
2013-08-31 10:20:00,80.0,77.0,29.78,NNW,337,3.0,3.0,92,0.00,,,0.00,TxWx,2013-08-31 14:20:00,
2013-08-31 10:26:00,80.0,77.0,29.78,WNW,292,3.0,3.0,92,0.00,,,0.00,TxWx,2013-08-31 14:26:00,
2013-08-31 10:31:00,80.0,77.0,29.78,NNW,337,1.0,1.0,92,0.00,,,0.00,TxWx,2013-08-31 14:31:00,
2013-08-31 10:36:00,80.0,77.0,29.78,North,0,6.0,7.0,91,0.00,,,0.00,TxWx,2013-08-31 14:36:00,
2013-08-31 10:41:00,80.0,77.0,29.77,NW,315,4.0,7.0,91,0.00,,,0.00,TxWx,2013-08-31 14:41:00,
2013-08-31 10:46:00,80.0,77.0,29.77,NNW,337,3.0,4.0,91,0.00,,,0.00,TxWx,2013-08-31 14:46:00,
2013-08-31 10:51:00,80.0,77.0,29.77,NNW,337,8.0,8.0,90,0.00,,,0.00,TxWx,2013-08-31 14:51:00,
2013-08-31 10:56:00,81.0,78.0,29.77,NNW,337,2.0,3.0,90,0.00,,,0.00,TxWx,2013-08-31 14:56:00,
2013-08-31 11:01:00,81.0,78.0,29.77,NW,315,3.0,3.0,90,0.00,,,0.00,TxWx,2013-08-31 15:01:00,
2013-08-31 11:07:00,81.0,77.0,29.77,WNW,292,3.0,3.0,89,0.00,,,0.00,TxWx,2013-08-31 15:07:00,
2013-08-31 11:12:00,81.0,77.0,29.77,NNW,337,3.0,4.0,89,0.00,,,0.00,TxWx,2013-08-31 15:12:00,
2013-08-31 11:17:00,82.0,78.0,29.77,WNW,292,3.0,7.0,88,0.00,,,0.00,TxWx,2013-08-31 15:17:00,
2013-08-31 11:22:00,82.0,78.0,29.78,NW,315,3.0,3.0,88,0.00,,,0.00,TxWx,2013-08-31 15:22:00,
2013-08-31 11:27:00,82.0,78.0,29.78,NNE,22,3.0,3.0,87,0.00,,,0.00,TxWx,2013-08-31 15:27:00,
2013-08-31 11:32:00,82.0,77.0,29.77,NW,315,4.0,4.0,86,0.00,,,0.00,TxWx,2013-08-31 15:32:00,
2013-08-31 11:38:00,82.0,77.0,29.77,WNW,292,3.0,3.0,86,0.00,,,0.00,TxWx,2013-08-31 15:38:00,
2013-08-31 11:43:00,82.0,77.0,29.77,NNW,337,5.0,7.0,85,0.00,,,0.00,TxWx,2013-08-31 15:43:00,
2013-08-31 11:48:00,82.0,77.0,29.77,WNW,292,3.0,3.0,85,0.00,,,0.00,TxWx,2013-08-31 15:48:00,
2013-08-31 11:53:00,82.0,77.0,29.77,NNW,337,5.0,7.0,85,0.00,,,0.00,TxWx,2013-08-31 15:53:00,
2013-08-31 11:58:00,82.0,77.0,29.77,West,270,2.0,2.0,85,0.00,,,0.00,TxWx,2013-08-31 15:58:00,
2013-08-31 12:03:00,82.0,77.0,29.76,NW,315,4.0,4.0,85,0.00,,,0.00,TxWx,2013-08-31 16:03:00,
2013-08-31 12:08:00,82.0,77.0,29.76,WNW,292,3.0,3.0,85,0.00,,,0.00,TxWx,2013-08-31 16:08:00,
2013-08-31 12:14:00,83.0,78.0,29.76,West,270,6.0,6.0,85,0.00,,,0.00,TxWx,2013-08-31 16:14:00,
2013-08-31 12:19:00,83.0,77.0,29.76,NW,315,2.0,3.0,84,0.00,,,0.00,TxWx,2013-08-31 16:19:00,
2013-08-31 12:24:00,83.0,77.0,29.76,NNW,337,6.0,7.0,83,0.00,,,0.00,TxWx,2013-08-31 16:24:00,
2013-08-31 12:29:00,84.0,78.0,29.76,West,270,3.0,3.0,82,0.00,,,0.00,TxWx,2013-08-31 16:29:00,
2013-08-31 12:34:00,84.0,78.0,29.76,NNW,337,5.0,8.0,82,0.00,,,0.00,TxWx,2013-08-31 16:34:00,
2013-08-31 12:39:00,84.0,78.0,29.76,NNW,337,6.0,6.0,81,0.00,,,0.00,TxWx,2013-08-31 16:39:00,
2013-08-31 12:44:00,84.0,78.0,29.76,NNE,22,3.0,4.0,81,0.00,,,0.00,TxWx,2013-08-31 16:44:00,
2013-08-31 12:50:00,84.0,77.0,29.76,NE,45,9.0,9.0,81,0.00,,,0.00,TxWx,2013-08-31 16:50:00,
2013-08-31 12:55:00,85.0,78.0,29.76,NNW,337,3.0,4.0,81,0.00,,,0.00,TxWx,2013-08-31 16:55:00,
2013-08-31 13:00:00,85.0,78.0,29.75,North,0,5.0,6.0,80,0.00,,,0.00,TxWx,2013-08-31 17:00:00,
2013-08-31 13:04:00,75.0,74.0,29.79,WSW,247,1.0,1.0,97,0.00,,,0.00,TxWx,2013-08-31 17:04:00,
2013-08-31 13:05:00,85.0,78.0,29.75,NNW,337,4.0,4.0,79,0.00,,,0.00,TxWx,2013-08-31 17:05:00,
2013-08-31 13:06:00,75.0,74.0,29.79,WSW,247,1.0,2.0,97,0.00,,,0.00,TxWx,2013-08-31 17:06:00,
2013-08-31 13:07:00,75.0,74.0,29.79,WSW,247,1.0,1.0,97,0.00,,,0.00,TxWx,2013-08-31 17:07:00,
2013-08-31 13:08:00,75.0,74.0,29.79,WNW,292,1.0,1.0,97,0.00,,,0.00,TxWx,2013-08-31 17:08:00,
2013-08-31 13:09:00,75.0,74.0,29.79,South,180,1.0,1.0,97,0.00,,,0.00,TxWx,2013-08-31 17:09:00,
2013-08-31 13:10:00,85.0,78.0,29.75,North,0,6.0,6.0,79,0.00,,,0.00,TxWx,2013-08-31 17:10:00,
2013-08-31 13:11:00,75.0,74.0,29.79,ENE,67,1.0,1.0,97,0.00,,,0.00,TxWx,2013-08-31 17:11:00,
2013-08-31 13:12:00,75.0,74.0,29.79,East,90,1.0,2.0,97,0.00,,,0.00,TxWx,2013-08-31 17:12:00,
2013-08-31 13:13:00,75.0,74.0,29.79,ESE,112,1.0,2.0,97,0.00,,,0.00,TxWx,2013-08-31 17:13:00,
2013-08-31 13:14:00,75.0,74.0,29.79,SE,135,1.0,1.0,97,0.00,,,0.00,TxWx,2013-08-31 17:14:00,
2013-08-31 13:15:00,85.0,78.0,29.75,ENE,67,2.0,3.0,79,0.00,,,0.00,TxWx,2013-08-31 17:15:00,
2013-08-31 13:16:00,75.0,74.0,29.79,South,180,0.0,1.0,97,0.00,,,0.00,TxWx,2013-08-31 17:16:00,
2013-08-31 13:18:00,75.0,74.0,29.79,SSW,202,1.0,1.0,97,0.00,,,0.00,TxWx,2013-08-31 17:18:00,
2013-08-31 13:19:00,75.0,74.0,29.79,SSW,202,1.0,1.0,97,0.00,,,0.00,TxWx,2013-08-31 17:19:00,
2013-08-31 13:20:00,85.0,78.0,29.75,NNE,22,6.0,8.0,79,0.00,,,0.00,TxWx,2013-08-31 17:20:00,
2013-08-31 13:25:00,85.0,77.0,29.75,WSW,247,3.0,5.0,78,0.00,,,0.00,TxWx,2013-08-31 17:25:00,
2013-08-31 13:31:00,85.0,78.0,29.75,NNW,337,2.0,3.0,79,0.00,,,0.00,TxWx,2013-08-31 17:31:00,
2013-08-31 13:36:00,85.0,77.0,29.75,NNW,337,8.0,8.0,78,0.00,,,0.00,TxWx,2013-08-31 17:36:00,
2013-08-31 13:41:00,85.0,77.0,29.74,NW,315,3.0,4.0,78,0.00,,,0.00,TxWx,2013-08-31 17:41:00,
2013-08-31 13:46:00,85.0,77.0,29.74,NNW,337,8.0,10.0,78,0.00,,,0.00,TxWx,2013-08-31 17:46:00,
2013-08-31 13:51:00,85.0,77.0,29.74,NNW,337,4.0,5.0,78,0.00,,,0.00,TxWx,2013-08-31 17:51:00,
2013-08-31 13:56:00,85.0,78.0,29.74,NW,315,5.0,7.0,79,0.00,,,0.00,TxWx,2013-08-31 17:56:00,
2013-08-31 14:00:00,75.0,74.0,29.79,WSW,247,1.0,1.0,98,0.00,,,0.00,TxWx,2013-08-31 18:00:00,
2013-08-31 14:01:00,85.0,77.0,29.74,NW,315,4.0,5.0,78,0.00,,,0.00,TxWx,2013-08-31 18:01:00,
2013-08-31 14:03:00,75.0,74.0,29.79,WNW,292,1.0,1.0,98,0.00,,,0.00,TxWx,2013-08-31 18:03:00,
2013-08-31 14:04:00,75.0,74.0,29.79,North,0,1.0,1.0,98,0.00,,,0.00,TxWx,2013-08-31 18:04:00,
2013-08-31 14:06:00,75.0,74.0,29.79,NE,45,1.0,1.0,98,0.00,,,0.00,TxWx,2013-08-31 18:06:00,
2013-08-31 14:07:00,86.0,78.0,29.74,WNW,292,3.0,3.0,79,0.00,,,0.00,TxWx,2013-08-31 18:07:00,
2013-08-31 14:08:00,75.0,74.0,29.79,NW,315,1.0,1.0,98,0.00,,,0.00,TxWx,2013-08-31 18:08:00,
2013-08-31 14:09:00,75.0,74.0,29.79,NNW,337,1.0,1.0,98,0.00,,,0.00,TxWx,2013-08-31 18:09:00,
2013-08-31 14:10:00,75.0,74.0,29.79,NNW,337,1.0,1.0,98,0.00,,,0.00,TxWx,2013-08-31 18:10:00,
2013-08-31 14:12:00,86.0,78.0,29.74,North,0,5.0,5.0,78,0.00,,,0.00,TxWx,2013-08-31 18:12:00,
2013-08-31 14:13:00,75.0,74.0,29.78,South,180,0.0,1.0,98,0.00,,,0.00,TxWx,2013-08-31 18:13:00,
2013-08-31 14:14:00,75.0,74.0,29.78,South,180,1.0,1.0,98,0.00,,,0.00,TxWx,2013-08-31 18:14:00,
2013-08-31 14:15:00,75.0,74.0,29.79,SW,225,1.0,1.0,98,0.00,,,0.00,TxWx,2013-08-31 18:15:00,
2013-08-31 14:17:00,86.0,78.0,29.73,NNE,22,3.0,5.0,78,0.00,,,0.00,TxWx,2013-08-31 18:17:00,
2013-08-31 14:18:00,75.0,74.0,29.79,West,270,0.0,1.0,98,0.00,,,0.00,TxWx,2013-08-31 18:18:00,
2013-08-31 14:19:00,75.0,74.0,29.79,WNW,292,0.0,1.0,98,0.00,,,0.00,TxWx,2013-08-31 18:19:00,
2013-08-31 14:20:00,75.0,74.0,29.79,East,90,1.0,1.0,98,0.00,,,0.00,TxWx,2013-08-31 18:20:00,
2013-08-31 14:21:00,75.0,74.0,29.79,ENE,67,1.0,2.0,98,0.00,,,0.00,TxWx,2013-08-31 18:21:00,
2013-08-31 14:22:00,86.0,78.0,29.74,NNE,22,5.0,8.0,78,0.00,,,0.00,TxWx,2013-08-31 18:22:00,
2013-08-31 14:27:00,86.0,78.0,29.73,West,270,5.0,5.0,77,0.00,,,0.00,TxWx,2013-08-31 18:27:00,
2013-08-31 14:32:00,87.0,79.0,29.73,West,270,9.0,10.0,77,0.00,,,0.00,TxWx,2013-08-31 18:32:00,
2013-08-31 14:37:00,87.0,78.0,29.74,North,0,13.0,14.0,76,0.00,,,0.00,TxWx,2013-08-31 18:37:00,
2013-08-31 14:42:00,87.0,78.0,29.73,West,270,8.0,11.0,75,0.00,,,0.00,TxWx,2013-08-31 18:42:00,
2013-08-31 14:47:00,87.0,78.0,29.73,North,0,8.0,8.0,75,0.00,,,0.00,TxWx,2013-08-31 18:47:00,
2013-08-31 14:53:00,87.0,78.0,29.73,NNW,337,5.0,7.0,75,0.00,,,0.00,TxWx,2013-08-31 18:53:00,
2013-08-31 14:58:00,88.0,79.0,29.73,NW,315,5.0,6.0,76,0.00,,,0.00,TxWx,2013-08-31 18:58:00,
2013-08-31 15:00:00,76.0,75.0,29.78,WNW,292,1.0,1.0,98,0.00,,,0.00,TxWx,2013-08-31 19:00:00,
2013-08-31 15:01:00,76.0,75.0,29.78,NW,315,1.0,1.0,98,0.00,,,0.00,TxWx,2013-08-31 19:01:00,
2013-08-31 15:02:00,75.0,74.0,29.78,NW,315,1.0,1.0,98,0.00,,,0.00,TxWx,2013-08-31 19:02:00,
2013-08-31 15:03:00,88.0,79.0,29.72,North,0,6.0,10.0,75,0.00,,,0.00,TxWx,2013-08-31 19:03:00,
2013-08-31 15:04:00,75.0,74.0,29.78,North,0,1.0,2.0,98,0.00,,,0.00,TxWx,2013-08-31 19:04:00,
2013-08-31 15:05:00,75.0,74.0,29.78,ENE,67,0.0,1.0,98,0.00,,,0.00,TxWx,2013-08-31 19:05:00,
2013-08-31 15:06:00,75.0,74.0,29.78,East,90,2.0,3.0,98,0.00,,,0.00,TxWx,2013-08-31 19:06:00,
2013-08-31 15:07:00,75.0,75.0,29.78,South,180,1.0,1.0,99,0.00,,,0.00,TxWx,2013-08-31 19:07:00,
2013-08-31 15:08:00,88.0,79.0,29.72,NW,315,9.0,11.0,75,0.00,,,0.00,TxWx,2013-08-31 19:08:00,
2013-08-31 15:09:00,75.0,75.0,29.77,South,180,1.0,1.0,99,0.00,,,0.00,TxWx,2013-08-31 19:09:00,
2013-08-31 15:10:00,75.0,75.0,29.77,ESE,112,1.0,1.0,99,0.00,,,0.00,TxWx,2013-08-31 19:10:00,
2013-08-31 15:11:00,75.0,75.0,29.77,NNE,22,2.0,2.0,99,0.00,,,0.00,TxWx,2013-08-31 19:11:00,
2013-08-31 15:12:00,75.0,75.0,29.77,North,0,2.0,2.0,99,0.00,,,0.00,TxWx,2013-08-31 19:12:00,
2013-08-31 15:13:00,88.0,79.0,29.72,ENE,67,5.0,5.0,75,0.00,,,0.00,TxWx,2013-08-31 19:13:00,
2013-08-31 15:14:00,75.0,75.0,29.77,NE,45,1.0,1.0,99,0.00,,,0.00,TxWx,2013-08-31 19:14:00,
2013-08-31 15:15:00,75.0,75.0,29.77,East,90,1.0,1.0,99,0.00,,,0.00,TxWx,2013-08-31 19:15:00,
2013-08-31 15:16:00,75.0,75.0,29.77,NE,45,1.0,1.0,99,0.00,,,0.00,TxWx,2013-08-31 19:16:00,
2013-08-31 15:17:00,75.0,75.0,29.77,NE,45,3.0,3.0,99,0.00,,,0.00,TxWx,2013-08-31 19:17:00,
2013-08-31 15:18:00,88.0,79.0,29.72,NNE,22,5.0,5.0,74,0.00,,,0.00,TxWx,2013-08-31 19:18:00,
2013-08-31 15:19:00,75.0,75.0,29.77,NNW,337,1.0,2.0,99,0.00,,,0.00,TxWx,2013-08-31 19:19:00,
2013-08-31 15:20:00,75.0,75.0,29.77,NNE,22,1.0,1.0,99,0.00,,,0.00,TxWx,2013-08-31 19:20:00,
2013-08-31 15:21:00,75.0,75.0,29.77,NNE,22,2.0,2.0,99,0.00,,,0.00,TxWx,2013-08-31 19:21:00,
2013-08-31 15:22:00,75.0,75.0,29.78,NNE,22,1.0,2.0,99,0.00,,,0.00,TxWx,2013-08-31 19:22:00,
2013-08-31 15:23:00,88.0,79.0,29.72,WNW,292,6.0,9.0,74,0.00,,,0.00,TxWx,2013-08-31 19:23:00,
2013-08-31 15:24:00,75.0,75.0,29.78,NNE,22,1.0,1.0,99,0.00,,,0.00,TxWx,2013-08-31 19:24:00,
2013-08-31 15:25:00,75.0,75.0,29.78,North,0,1.0,1.0,99,0.00,,,0.00,TxWx,2013-08-31 19:25:00,
2013-08-31 15:26:00,75.0,75.0,29.78,WNW,292,1.0,1.0,99,0.00,,,0.00,TxWx,2013-08-31 19:26:00,
2013-08-31 15:27:00,75.0,75.0,29.78,West,270,1.0,1.0,99,0.00,,,0.00,TxWx,2013-08-31 19:27:00,
2013-08-31 15:28:00,88.0,78.0,29.72,NNW,337,5.0,5.0,74,0.00,,,0.00,TxWx,2013-08-31 19:28:00,
2013-08-31 15:29:00,75.0,75.0,29.78,WNW,292,1.0,1.0,99,0.00,,,0.00,TxWx,2013-08-31 19:29:00,
2013-08-31 15:30:00,75.0,75.0,29.79,WNW,292,1.0,1.0,99,0.00,,,0.00,TxWx,2013-08-31 19:30:00,
2013-08-31 15:31:00,75.0,75.0,29.79,WNW,292,1.0,1.0,99,0.00,,,0.00,TxWx,2013-08-31 19:31:00,
2013-08-31 15:32:00,75.0,75.0,29.79,WNW,292,1.0,1.0,99,0.00,,,0.00,TxWx,2013-08-31 19:32:00,
2013-08-31 15:33:00,88.0,78.0,29.72,WNW,292,4.0,5.0,74,0.00,,,0.00,TxWx,2013-08-31 19:33:00,
2013-08-31 15:35:00,75.0,75.0,29.78,WNW,292,1.0,1.0,99,0.00,,,0.00,TxWx,2013-08-31 19:35:00,
2013-08-31 15:37:00,75.0,75.0,29.78,NW,315,1.0,1.0,99,0.00,,,0.00,TxWx,2013-08-31 19:37:00,
2013-08-31 15:39:00,88.0,79.0,29.72,NW,315,2.0,3.0,74,0.00,,,0.00,TxWx,2013-08-31 19:39:00,
2013-08-31 15:40:00,75.0,75.0,29.78,ENE,67,1.0,1.0,99,0.00,,,0.00,TxWx,2013-08-31 19:40:00,
2013-08-31 15:41:00,75.0,75.0,29.78,ENE,67,1.0,1.0,99,0.00,,,0.00,TxWx,2013-08-31 19:41:00,
2013-08-31 15:42:00,75.0,75.0,29.78,NE,45,1.0,1.0,99,0.00,,,0.00,TxWx,2013-08-31 19:42:00,
2013-08-31 15:44:00,88.0,79.0,29.71,West,270,11.0,11.0,75,0.00,,,0.00,TxWx,2013-08-31 19:44:00,
2013-08-31 15:47:00,75.0,75.0,29.78,NNE,22,1.0,1.0,99,0.00,,,0.00,TxWx,2013-08-31 19:47:00,
2013-08-31 15:48:00,75.0,75.0,29.77,North,0,1.0,1.0,99,0.00,,,0.00,TxWx,2013-08-31 19:48:00,
2013-08-31 15:49:00,88.0,79.0,29.71,NNE,22,4.0,4.0,75,0.00,,,0.00,TxWx,2013-08-31 19:49:00,
2013-08-31 15:51:00,75.0,75.0,29.78,SSE,157,0.0,1.0,99,0.00,,,0.00,TxWx,2013-08-31 19:51:00,
2013-08-31 15:54:00,88.0,79.0,29.71,NNW,337,3.0,4.0,75,0.00,,,0.00,TxWx,2013-08-31 19:54:00,
2013-08-31 15:59:00,87.0,78.0,29.71,North,0,7.0,13.0,75,0.00,,,0.00,TxWx,2013-08-31 19:59:00,
2013-08-31 16:04:00,87.0,78.0,29.71,WNW,292,4.0,5.0,75,0.00,,,0.00,TxWx,2013-08-31 20:04:00,
2013-08-31 16:09:00,87.0,78.0,29.71,NNW,337,6.0,7.0,76,0.00,,,0.00,TxWx,2013-08-31 20:09:00,
2013-08-31 16:15:00,87.0,78.0,29.71,NNW,337,3.0,4.0,76,0.00,,,0.00,TxWx,2013-08-31 20:15:00,
2013-08-31 16:20:00,86.0,78.0,29.71,NNW,337,5.0,6.0,76,0.00,,,0.00,TxWx,2013-08-31 20:20:00,
2013-08-31 16:25:00,86.0,78.0,29.72,WNW,292,3.0,4.0,77,0.00,,,0.00,TxWx,2013-08-31 20:25:00,
2013-08-31 16:30:00,86.0,78.0,29.72,WNW,292,5.0,6.0,77,0.00,,,0.00,TxWx,2013-08-31 20:30:00,
2013-08-31 16:35:00,86.0,78.0,29.73,NNW,337,3.0,5.0,77,0.00,,,0.00,TxWx,2013-08-31 20:35:00,
2013-08-31 16:40:00,85.0,77.0,29.73,NNW,337,2.0,3.0,78,0.00,,,0.00,TxWx,2013-08-31 20:40:00,
2013-08-31 16:45:00,85.0,77.0,29.73,NW,315,3.0,3.0,78,0.00,,,0.00,TxWx,2013-08-31 20:45:00,
2013-08-31 16:50:00,85.0,77.0,29.73,NNW,337,3.0,3.0,78,0.00,,,0.00,TxWx,2013-08-31 20:50:00,
2013-08-31 16:56:00,85.0,77.0,29.73,NNW,337,5.0,5.0,78,0.00,,,0.00,TxWx,2013-08-31 20:56:00,
2013-08-31 17:01:00,85.0,77.0,29.73,NW,315,3.0,3.0,78,0.00,,,0.00,TxWx,2013-08-31 21:01:00,
2013-08-31 17:06:00,84.0,77.0,29.74,WNW,292,3.0,3.0,79,0.00,,,0.00,TxWx,2013-08-31 21:06:00,
2013-08-31 17:11:00,84.0,77.0,29.73,NNW,337,2.0,4.0,79,0.00,,,0.00,TxWx,2013-08-31 21:11:00,
2013-08-31 17:16:00,84.0,77.0,29.73,NW,315,2.0,3.0,80,0.00,,,0.00,TxWx,2013-08-31 21:16:00,
2013-08-31 17:21:00,84.0,77.0,29.73,NNW,337,4.0,4.0,80,0.00,,,0.00,TxWx,2013-08-31 21:21:00,
2013-08-31 17:26:00,84.0,77.0,29.72,NNW,337,2.0,3.0,80,0.00,,,0.00,TxWx,2013-08-31 21:26:00,
2013-08-31 17:31:00,83.0,76.0,29.72,NW,315,5.0,6.0,81,0.00,,,0.00,TxWx,2013-08-31 21:31:00,
2013-08-31 17:37:00,83.0,77.0,29.73,NW,315,3.0,5.0,81,0.00,,,0.00,TxWx,2013-08-31 21:37:00,
2013-08-31 17:42:00,83.0,77.0,29.73,NNW,337,2.0,2.0,82,0.00,,,0.00,TxWx,2013-08-31 21:42:00,
2013-08-31 17:47:00,83.0,77.0,29.73,North,0,3.0,3.0,82,0.00,,,0.00,TxWx,2013-08-31 21:47:00,
2013-08-31 17:52:00,83.0,77.0,29.73,SW,225,1.0,1.0,82,0.00,,,0.00,TxWx,2013-08-31 21:52:00,
2013-08-31 17:57:00,83.0,77.0,29.74,NNW,337,1.0,2.0,82,0.00,,,0.00,TxWx,2013-08-31 21:57:00,
2013-08-31 18:02:00,83.0,77.0,29.74,WNW,292,1.0,1.0,82,0.00,,,0.00,TxWx,2013-08-31 22:02:00,
2013-08-31 18:07:00,83.0,77.0,29.74,NW,315,1.0,1.0,83,0.00,,,0.00,TxWx,2013-08-31 22:07:00,
2013-08-31 18:13:00,83.0,77.0,29.73,WNW,292,2.0,3.0,83,0.00,,,0.00,TxWx,2013-08-31 22:13:00,
2013-08-31 18:17:00,83.0,77.0,29.73,WNW,292,1.0,1.0,83,0.00,,,0.00,TxWx,2013-08-31 22:17:00,
2013-08-31 18:22:00,83.0,77.0,29.73,WNW,292,2.0,2.0,84,0.00,,,0.00,TxWx,2013-08-31 22:22:00,
2013-08-31 18:28:00,83.0,77.0,29.73,NNW,337,3.0,3.0,84,0.00,,,0.00,TxWx,2013-08-31 22:28:00,
2013-08-31 18:33:00,83.0,78.0,29.73,NNW,337,2.0,4.0,84,0.00,,,0.00,TxWx,2013-08-31 22:33:00,
2013-08-31 18:38:00,83.0,78.0,29.74,North,0,3.0,5.0,84,0.00,,,0.00,TxWx,2013-08-31 22:38:00,
2013-08-31 18:43:00,82.0,76.0,29.74,North,0,5.0,8.0,84,0.00,,,0.00,TxWx,2013-08-31 22:43:00,
2013-08-31 18:48:00,81.0,75.0,29.74,NNE,22,8.0,16.0,82,0.00,,,0.00,TxWx,2013-08-31 22:48:00,
2013-08-31 18:53:00,79.0,73.0,29.75,ENE,67,3.0,4.0,83,0.00,,,0.00,TxWx,2013-08-31 22:53:00,
2013-08-31 18:58:00,78.0,73.0,29.75,NW,315,3.0,3.0,84,0.00,,,0.00,TxWx,2013-08-31 22:58:00,
2013-08-31 19:04:00,77.0,72.0,29.73,NNW,337,2.0,3.0,85,0.00,,,0.00,TxWx,2013-08-31 23:04:00,
2013-08-31 19:09:00,77.0,72.0,29.73,NNE,22,1.0,2.0,86,0.00,,,0.00,TxWx,2013-08-31 23:09:00,
2013-08-31 19:14:00,77.0,73.0,29.74,SW,225,1.0,1.0,87,0.00,,,0.00,TxWx,2013-08-31 23:14:00,
2013-08-31 19:19:00,76.0,72.0,29.74,SW,225,3.0,3.0,87,0.00,,,0.00,TxWx,2013-08-31 23:19:00,
2013-08-31 19:24:00,76.0,72.0,29.74,WNW,292,2.0,3.0,88,0.00,,,0.00,TxWx,2013-08-31 23:24:00,
2013-08-31 19:29:00,76.0,72.0,29.74,East,90,2.0,3.0,88,0.00,,,0.00,TxWx,2013-08-31 23:29:00,
2013-08-31 19:34:00,76.0,73.0,29.75,ESE,112,3.0,3.0,89,0.00,,,0.00,TxWx,2013-08-31 23:34:00,
2013-08-31 19:39:00,76.0,73.0,29.75,SSE,157,2.0,2.0,90,0.00,,,0.00,TxWx,2013-08-31 23:39:00,
2013-08-31 19:45:00,76.0,73.0,29.75,SSE,157,1.0,1.0,91,0.00,,,0.00,TxWx,2013-08-31 23:45:00,
2013-08-31 19:50:00,76.0,73.0,29.75,WNW,292,1.0,2.0,91,0.00,,,0.00,TxWx,2013-08-31 23:50:00,
2013-08-31 19:55:00,76.0,73.0,29.75,NNW,337,1.0,1.0,92,0.00,,,0.00,TxWx,2013-08-31 23:55:00,
2013-08-31 20:00:00,76.0,73.0,29.75,NNE,22,1.0,1.0,92,0.00,,,0.00,TxWx,2013-09-01 00:00:00,
2013-08-31 20:05:00,75.0,73.0,29.76,WNW,292,1.0,2.0,92,0.00,,,0.00,TxWx,2013-09-01 00:05:00,
2013-08-31 20:10:00,75.0,73.0,29.76,NNE,22,1.0,1.0,92,0.00,,,0.00,TxWx,2013-09-01 00:10:00,
2013-08-31 20:15:00,75.0,73.0,29.76,North,0,1.0,1.0,93,0.00,,,0.00,TxWx,2013-09-01 00:15:00,
2013-08-31 20:21:00,75.0,73.0,29.77,NNE,22,1.0,1.0,93,0.00,,,0.00,TxWx,2013-09-01 00:21:00,
2013-08-31 20:26:00,75.0,73.0,29.77,SSW,202,3.0,4.0,93,0.00,,,0.00,TxWx,2013-09-01 00:26:00,
2013-08-31 20:31:00,75.0,73.0,29.77,South,180,3.0,4.0,94,0.00,,,0.00,TxWx,2013-09-01 00:31:00,
2013-08-31 20:36:00,75.0,73.0,29.77,East,90,1.0,2.0,94,0.00,,,0.00,TxWx,2013-09-01 00:36:00,
2013-08-31 20:41:00,75.0,73.0,29.77,WNW,292,1.0,2.0,94,0.00,,,0.00,TxWx,2013-09-01 00:41:00,
2013-08-31 20:46:00,75.0,73.0,29.77,ENE,67,1.0,2.0,94,0.00,,,0.00,TxWx,2013-09-01 00:46:00,
2013-08-31 20:51:00,75.0,73.0,29.77,NW,315,1.0,1.0,94,0.00,,,0.00,TxWx,2013-09-01 00:51:00,
2013-08-31 20:56:00,75.0,73.0,29.78,NE,45,1.0,1.0,95,0.00,,,0.00,TxWx,2013-09-01 00:56:00,
2013-08-31 21:02:00,75.0,73.0,29.78,NNE,22,1.0,1.0,95,0.00,,,0.00,TxWx,2013-09-01 01:02:00,
2013-08-31 21:07:00,75.0,73.0,29.78,NW,315,2.0,2.0,95,0.00,,,0.00,TxWx,2013-09-01 01:07:00,
2013-08-31 21:12:00,75.0,73.0,29.77,West,270,1.0,1.0,95,0.00,,,0.00,TxWx,2013-09-01 01:12:00,
2013-08-31 21:17:00,75.0,73.0,29.78,ENE,67,2.0,2.0,95,0.00,,,0.00,TxWx,2013-09-01 01:17:00,
2013-08-31 21:22:00,75.0,74.0,29.79,ENE,67,1.0,1.0,96,0.00,,,0.00,TxWx,2013-09-01 01:22:00,
2013-08-31 21:27:00,75.0,74.0,29.79,WNW,292,2.0,2.0,96,0.00,,,0.00,TxWx,2013-09-01 01:27:00,
2013-08-31 21:32:00,75.0,74.0,29.79,WNW,292,0.0,1.0,96,0.00,,,0.00,TxWx,2013-09-01 01:32:00,
2013-08-31 21:38:00,75.0,74.0,29.79,ESE,112,1.0,1.0,96,0.00,,,0.00,TxWx,2013-09-01 01:38:00,
2013-08-31 21:43:00,75.0,74.0,29.78,WNW,292,1.0,1.0,96,0.00,,,0.00,TxWx,2013-09-01 01:43:00,
2013-08-31 21:48:00,75.0,74.0,29.78,NNW,337,3.0,3.0,96,0.00,,,0.00,TxWx,2013-09-01 01:48:00,
2013-08-31 21:53:00,75.0,74.0,29.78,WSW,247,0.0,1.0,96,0.00,,,0.00,TxWx,2013-09-01 01:53:00,
2013-08-31 21:58:00,75.0,74.0,29.79,South,180,3.0,3.0,97,0.00,,,0.00,TxWx,2013-09-01 01:58:00,
2013-08-31 22:03:00,75.0,74.0,29.79,SSW,202,1.0,2.0,97,0.00,,,0.00,TxWx,2013-09-01 02:03:00,
2013-08-31 22:08:00,75.0,74.0,29.79,West,270,1.0,1.0,97,0.00,,,0.00,TxWx,2013-09-01 02:08:00,
2013-08-31 22:14:00,75.0,74.0,29.79,ESE,112,1.0,2.0,97,0.00,,,0.00,TxWx,2013-09-01 02:14:00,
2013-08-31 22:19:00,75.0,74.0,29.79,SSW,202,1.0,1.0,97,0.00,,,0.00,TxWx,2013-09-01 02:19:00,
2013-08-31 22:24:00,75.0,74.0,29.79,SE,135,1.0,1.0,97,0.00,,,0.00,TxWx,2013-09-01 02:24:00,
2013-08-31 22:29:00,75.0,74.0,29.79,NNE,22,2.0,3.0,97,0.00,,,0.00,TxWx,2013-09-01 02:29:00,
2013-08-31 22:34:00,75.0,74.0,29.78,NW,315,1.0,2.0,97,0.00,,,0.00,TxWx,2013-09-01 02:34:00,
2013-08-31 22:39:00,75.0,74.0,29.78,NNE,22,0.0,1.0,97,0.00,,,0.00,TxWx,2013-09-01 02:39:00,
2013-08-31 22:45:00,75.0,74.0,29.79,NNE,22,1.0,1.0,98,0.00,,,0.00,TxWx,2013-09-01 02:45:00,
2013-08-31 22:50:00,75.0,74.0,29.79,ENE,67,2.0,3.0,98,0.00,,,0.00,TxWx,2013-09-01 02:50:00,
2013-08-31 22:55:00,75.0,74.0,29.79,NW,315,1.0,1.0,98,0.00,,,0.00,TxWx,2013-09-01 02:55:00,
2013-08-31 23:00:00,75.0,74.0,29.78,West,270,1.0,1.0,98,0.00,,,0.00,TxWx,2013-09-01 03:00:00,
2013-08-31 23:06:00,75.0,74.0,29.79,NE,45,1.0,1.0,98,0.00,,,0.00,TxWx,2013-09-01 03:06:00,
2013-08-31 23:11:00,75.0,74.0,29.79,NNW,337,0.0,1.0,98,0.00,,,0.00,TxWx,2013-09-01 03:11:00,
2013-08-31 23:16:00,75.0,74.0,29.79,WSW,247,1.0,1.0,98,0.00,,,0.00,TxWx,2013-09-01 03:16:00,
2013-08-31 23:21:00,75.0,74.0,29.79,ENE,67,1.0,2.0,98,0.00,,,0.00,TxWx,2013-09-01 03:21:00,
2013-08-31 23:26:00,75.0,74.0,29.78,South,180,1.0,1.0,98,0.00,,,0.00,TxWx,2013-09-01 03:26:00,
2013-08-31 23:31:00,76.0,75.0,29.78,NNW,337,1.0,1.0,98,0.00,,,0.00,TxWx,2013-09-01 03:31:00,
2013-08-31 23:37:00,76.0,75.0,29.79,NW,315,1.0,1.0,98,0.00,,,0.00,TxWx,2013-09-01 03:37:00,
2013-08-31 23:42:00,76.0,75.0,29.79,South,180,1.0,1.0,98,0.00,,,0.00,TxWx,2013-09-01 03:42:00,
2013-08-31 23:47:00,76.0,75.0,29.78,West,270,1.0,2.0,98,0.00,,,0.00,TxWx,2013-09-01 03:47:00,
2013-08-31 23:52:00,76.0,75.0,29.78,East,90,1.0,1.0,98,0.00,,,0.00,TxWx,2013-09-01 03:52:00,
2013-08-31 23:57:00,76.0,75.0,29.78,WNW,292,1.0,2.0,98,0.00,,,0.00,TxWx,2013-09-01 03:57:00,